Find Starlink 3096

NORAD ID: 49131 Int'l Des: 2021-082 Owner: SPXS Country: US Constellation: starlink operational
LEOCIRCULAR

实时位置

正在加载3D地球...

关于 Starlink 3096

正在加载描述...

即将过境

Passes for default location (London). Set your location on the main map for personalized predictions.

高度历史

Loading altitude history...

两行轨道根数

1 49131U 21082B 26121.83336806 .01120313 63998-3 22235-2 0 9995
2 49131 69.9972 105.5985 0004534 265.5400 359.3742 15.99858598 5974
Epoch: May 1, 2026 • Age: 6 hours

当前状态

高度 286.6 km
速度 7.74 km/s
星下点 -42.31°S, 56.56°E
发射日期 Sep 14, 2021
运行时间 4.6 years
类型 internet

技术详情

分类 Payload
质量 297.00 kg
干质量 275.00 kg
总质量 297.00 kg
长度 0.20 m
直径 2.80 m
跨度 9.00 m
形状 Box + pan
制造商 SPXS
平台类型 Starlink
阶段状态 In Orbit
所有者/国家 SPXS/US

Most Searched